Stations météo

Publicité
Rennes, France (7130): Température de l'air & dewpoint: 20.04.2018 16:00:00 - 26.04.2018 16:00:00 (CEST)Rennes, France (7130): Température de l'air 5cm: 20.04.2018 16:00:00 - 26.04.2018 16:00:00 (CEST)Rennes, France (7130): Température de l'air -20cm & Température de l'air -100cm: 20.04.2018 16:00:00 - 26.04.2018 16:00:00 (CEST)Rennes, France (7130): Vitesse du vent & gusts: 20.04.2018 16:00:00 - 26.04.2018 16:00:00 (CEST)Rennes, France (7130): Direction du vent: 20.04.2018 16:00:00 - 26.04.2018 16:00:00 (CEST)Rennes, France (7130): reduced air pressure: 20.04.2018 16:00:00 - 26.04.2018 16:00:00 (CEST)Rennes, France (7130): visibility: 20.04.2018 16:00:00 - 26.04.2018 16:00:00 (CEST)Rennes, France (7130): Ensoleillement: 20.04.2018 16:00:00 - 26.04.2018 16:00:00 (CEST)Rennes, France (7130): Quantités de précipitations: 20.04.2018 16:00:00 - 26.04.2018 16:00:00 (CEST)
Date & Time tt [°C] td [°C] tt 5cm [°C] tt -20cm [°C] tt -100cm [°C] ff [km/h] ff [knt] fx [km/h] fx [knt] dd ppp [hPa] vv [km] sd [min] rr [mm]
26.04.2018 16:00:00 16,4 4,4 21,6 12,9 11,9 8 5 40 22 W 1020,6 20 37 0,0
26.04.2018 15:00:00 15,9 5,2 20,1 12,8 11,9 11 6 25 13 W 1021,1 19 42 0,0
26.04.2018 14:00:00 14,0 5,6 18,6 12,7 11,9 12 7 23 12 WNW 1021,7 48 29 0,0
26.04.2018 13:00:00 14,8 5,6 18,6 12,7 11,9 12 7 24 13 W 1022,3 60 40 0,0
26.04.2018 12:00:00 14,2 5,5 20,4 12,7 11,8 10 5 23 12 W 1022,7 20 49 0,0
26.04.2018 11:00:00 12,8 5,5 18,9 12,8 11,9 11 6 23 12 W 1023,0 60 48 0,0
26.04.2018 10:00:00 11,6 6,9 10,9 12,8 11,8 13 7 21 11 WNW 1023,0 19 60 0,0
26.04.2018 09:00:00 9,3 7,4 0,8 12,9 11,9 7 4 15 8 W 1022,9 18 60 0,0
26.04.2018 08:00:00 5,6 5,2 -1,2 13,0 11,8 5 3 10 6 SW 1022,8 15 39 0,0
26.04.2018 07:00:00 5,2 4,8 -1,6 13,1 11,8 5 3 11 6 WSW 1022,4 13 0 0,0
26.04.2018 06:00:00 5,2 4,3 -1,4 13,2 11,8 6 4 11 6 WSW 1022,5 15 0 0,0
26.04.2018 05:00:00 6,6 5,1 3,4 13,2 11,8 10 5 18 10 SW 1022,5 18 0 0,0
26.04.2018 04:00:00 6,3 5,1 -0,1 13,3 11,8 9 5 14 7 SW 1022,4 19 0 0,0
26.04.2018 03:00:00 6,1 4,4 -0,8 13,4 11,8 7 4 13 7 SW 1022,7 40 0 0,0
26.04.2018 02:00:00 6,6 4,8 -0,7 13,5 11,8 6 4 10 6 WSW 1022,7 43 0 0,0
26.04.2018 01:00:00 6,9 4,7 -0,4 13,6 11,8 4 2 12 7 WSW 1022,7 53 0 0,0
26.04.2018 00:00:00 7,8 4,9 1,3 13,6 11,8 6 4 13 7 W 1022,2 57 0 0,0
25.04.2018 23:00:00 8,5 4,5 2,8 13,6 11,8 7 4 22 12 WSW 1021,8 59 0 0,0
25.04.2018 22:00:00 10,6 4,5 7,2 13,6 11,8 16 9 26 14 W 1021,3 60 0 0,0
25.04.2018 21:00:00 11,9 4,8 8,9 13,6 11,8 16 9 43 23 WNW 1020,4 60 31 0,0
25.04.2018 20:00:00 14,1 5,2 12,5 13,6 11,8 21 11 35 19 WNW 1019,3 58 29 0,0
25.04.2018 19:00:00 16,1 3,8 15,7 13,5 11,8 26 14 42 23 WNW 1018,7 59 43 0,0
25.04.2018 18:00:00 14,8 7,1 15,9 13,4 11,8 21 12 40 22 NNW 1018,8 20 29 0,0
25.04.2018 17:00:00 17,2 6,7 25,1 13,4 11,8 21 12 44 24 W 1018,5 47 53 0,0
25.04.2018 16:00:00 17,1 7,7 17,9 13,4 11,8 18 10 39 21 WNW 1018,7 20 26 0,0
25.04.2018 15:00:00 16,4 7,1 21,0 13,3 11,8 18 10 37 20 W 1019,0 54 20 0,0
25.04.2018 14:00:00 16,1 7,6 22,0 13,3 11,8 14 7 39 21 W 1019,3 19 27 0,0
25.04.2018 13:00:00 15,5 8,2 18,1 13,3 11,8 15 8 30 16 WNW 1019,3 20 37 0,0
25.04.2018 12:00:00 13,5 7,5 14,5 13,3 11,8 14 8 24 13 WNW 1019,3 52 16 0,0
25.04.2018 11:00:00 11,9 8,0 11,5 13,3 11,8 19 10 29 16 NW 1018,8 20 3 0,0
25.04.2018 10:00:00 11,4 8,8 10,4 13,3 11,8 14 8 26 14 NNW 1018,4 44 19 0,0
25.04.2018 09:00:00 10,1 9,0 10,2 13,3 11,7 15 8 27 15 NNW 1017,9 8 0 0,0
25.04.2018 08:00:00 10,1 9,3 10,1 13,4 11,8 17 9 37 20 NNW 1017,1 14 0 0,8
25.04.2018 07:00:00 12,8 11,0 12,0 13,4 11,7 12 7 20 11 WSW 1015,9 52 0 0,0
25.04.2018 06:00:00 12,9 10,8 11,8 13,4 11,8 13 7 21 12 W 1015,8 60 0 0,0
25.04.2018 05:00:00 12,4 11,0 11,5 13,4 11,8 8 5 18 10 SW 1015,8 46 0 0,0
25.04.2018 04:00:00 11,9 10,3 11,3 13,5 11,7 10 5 16 9 SSW 1015,9 35 0 0,0
25.04.2018 03:00:00 11,8 10,0 11,0 13,5 11,7 10 5 18 10 SSW 1016,2 46 0 0,0
25.04.2018 02:00:00 11,5 9,6 9,9 13,5 11,7 10 5 18 10 SW 1016,3 45 0 0,0
25.04.2018 01:00:00 10,6 8,9 7,4 13,6 11,7 9 5 20 11 SW 1016,5 43 0 0,0
25.04.2018 00:00:00 11,6 9,0 7,4 13,6 11,7 13 7 23 12 WSW 1016,6 49 0 0,0
24.04.2018 23:00:00 11,3 8,9 8,5 13,6 11,8 12 7 20 11 SW 1016,8 56 0 0,0
24.04.2018 22:00:00 12,3 8,8 9,4 13,6 11,7 14 7 28 15 W 1016,9 53 0 0,0
24.04.2018 21:00:00 13,8 8,6 11,0 13,5 11,7 13 7 26 14 W 1016,4 47 45 0,0
24.04.2018 20:00:00 15,7 9,1 14,3 13,4 11,7 15 8 27 15 SW 1016,1 23 60 0,0
24.04.2018 19:00:00 17,2 9,1 19,1 13,3 11,7 20 11 35 19 SSW 1016,4 20 60 0,0
24.04.2018 18:00:00 18,4 10,0 25,1 13,2 11,7 19 10 33 18 SW 1016,6 20 60 0,0
24.04.2018 17:00:00 18,6 10,7 28,8 13,1 11,7 20 11 36 19 WSW 1017,2 21 60 0,0
24.04.2018 16:00:00 19,0 10,5 32,0 13,0 11,7 16 9 32 17 SW 1018,1 19 60 0,0
24.04.2018 15:00:00 18,0 9,6 34,1 12,9 11,7 15 8 26 14 SSW 1018,7 20 60 0,0
24.04.2018 14:00:00 17,6 9,5 34,6 12,9 11,7 13 7 26 14 WSW 1019,4 20 60 0,0
24.04.2018 13:00:00 16,7 9,9 33,3 12,8 11,7 12 6 22 12 SW 1020,1 32 60 0,0
24.04.2018 12:00:00 15,3 9,2 29,2 12,9 11,7 10 5 24 13 SW 1020,7 20 60 0,0
24.04.2018 11:00:00 13,7 7,7 22,0 12,9 11,7 11 6 20 11 WSW 1021,2 37 60 0,0
24.04.2018 10:00:00 12,0 7,9 11,3 12,9 11,7 7 4 13 7 WSW 1021,3 20 60 0,0
24.04.2018 09:00:00 8,6 8,3 3,5 13,0 11,7 5 3 8 4 S 1021,1 20 60 0,0
24.04.2018 08:00:00 5,6 5,5 -0,7 13,2 11,7 5 3 7 4 WNW 1021,2 4,7 35 0,0
24.04.2018 07:00:00 5,1 4,8 -1,0 13,3 11,7 3 2 5 3 WNW 1020,7 0,8 0 0,0
24.04.2018 06:00:00 5,2 4,9 -1,1 13,4 11,7 0 0 3 2 N 1020,6 9 0 0,0
24.04.2018 05:00:00 5,7 5,3 -0,7 13,4 11,6 4 2 5 3 WSW 1021,0 6 0 0,0
24.04.2018 04:00:00 6,0 5,6 -0,5 13,5 11,6 3 2 6 3 W 1021,5 9 0 0,0
24.04.2018 03:00:00 6,6 6,0 -0,3 13,6 11,6 5 3 6 4 WNW 1021,7 14 0 0,0
24.04.2018 02:00:00 6,5 5,6 0,2 13,7 11,6 3 1 5 3 W 1021,8 20 0 0,0
24.04.2018 01:00:00 7,5 5,6 0,9 13,8 11,6 4 2 6 3 W 1022,1 30 0 0,0
24.04.2018 00:00:00 9,0 5,6 3,2 13,8 11,6 5 3 11 6 N 1022,0 37 0 0,0
23.04.2018 23:00:00 9,6 5,9 3,4 13,8 11,6 5 3 11 6 N 1021,9 41 0 0,0
23.04.2018 22:00:00 10,9 6,2 6,1 13,8 11,6 8 4 19 10 NNE 1021,4 41 0 0,0
23.04.2018 21:00:00 12,4 7,1 9,2 13,8 11,6 10 6 26 14 NNE 1020,8 40 44 0,0
23.04.2018 20:00:00 14,6 8,3 13,9 13,7 11,6 14 7 22 12 NNE 1020,2 40 53 0,0
23.04.2018 19:00:00 17,7 8,8 21,4 13,7 11,6 7 4 18 10 WSW 1020,2 44 60 0,0
23.04.2018 18:00:00 17,5 8,4 20,9 13,6 11,6 6 3 20 11 W 1020,4 20 39 0,0
23.04.2018 17:00:00 16,8 7,7 23,1 13,6 11,6 9 5 20 11 WSW 1020,5 47 16 0,0
23.04.2018 16:00:00 16,1 9,3 24,7 13,5 11,6 7 4 17 9 WNW 1021,1 47 1 0,0
23.04.2018 15:00:00 15,7 9,4 21,1 13,5 11,6 8 4 16 9 NW 1021,4 20 0 0,0
23.04.2018 14:00:00 15,1 8,6 21,4 13,4 11,6 7 4 17 9 W 1021,5 42 0 0,0
23.04.2018 13:00:00 14,9 7,9 23,1 13,4 11,5 10 5 20 11 W 1021,6 37 16 0,0
23.04.2018 12:00:00 14,6 8,5 22,2 13,4 11,5 6 3 18 10 WNW 1021,6 20 48 0,0
23.04.2018 11:00:00 13,2 8,1 18,1 13,4 11,5 9 5 16 9 NW 1021,5 48 19 0,0
23.04.2018 10:00:00 12,1 7,8 13,5 13,5 11,5 9 5 17 9 N 1021,1 46 1 0,0
23.04.2018 09:00:00 11,2 8,1 10,9 13,5 11,5 11 6 19 11 N 1020,5 43 0 0,0
23.04.2018 08:00:00 10,7 8,3 9,8 13,6 11,5 14 8 21 11 NNW 1019,9 46 0 0,0
23.04.2018 07:00:00 10,8 8,7 9,9 13,6 11,5 5 3 12 7 NNW 1019,2 47 0 0,0
23.04.2018 06:00:00 11,1 9,8 10,7 13,6 11,5 8 4 23 12 N 1018,8 20 0 0,0
23.04.2018 05:00:00 11,9 10,3 10,7 13,7 11,5 9 5 18 10 N 1018,7 31 0 0,0
23.04.2018 04:00:00 11,4 10,3 4,2 13,8 11,5 7 4 12 7 NNW 1018,1 28 0 0,0
23.04.2018 03:00:00 9,5 7,9 3,9 13,8 11,5 3 1 4 2 WNW 1017,8 38 0 0,0
23.04.2018 02:00:00 10,8 8,4 5,7 13,8 11,5 4 2 12 7 NNW 1017,7 40 0 0,0
23.04.2018 01:00:00 12,3 7,6 11,1 13,9 11,5 6 3 10 5 NNW 1017,4 59 0 0,0
23.04.2018 00:00:00 12,6 4,5 10,8 13,9 11,5 5 3 14 8 N 1017,3 60 0 0,0
22.04.2018 23:00:00 13,2 4,1 10,0 13,9 11,4 12 6 19 11 NNW 1016,8 60 0 0,0
22.04.2018 22:00:00 12,7 6,5 10,0 13,8 11,4 9 5 19 10 NNW 1015,8 41 0 0,0
22.04.2018 21:00:00 14,9 9,5 13,2 13,8 11,4 14 7 20 11 NNW 1014,6 20 5 0,0
22.04.2018 20:00:00 18,1 12,3 16,7 13,8 11,4 13 7 24 13 SW 1013,7 36 33 0,0
22.04.2018 19:00:00 19,3 12,6 19,6 13,7 11,4 14 8 27 15 SW 1013,4 28 11 0,0
22.04.2018 18:00:00 19,9 12,2 21,4 13,6 11,4 20 11 31 17 SW 1013,1 37 22 0,0
22.04.2018 17:00:00 20,6 13,3 24,5 13,6 11,4 17 9 27 15 SSW 1013,0 22 10 0,0
22.04.2018 16:00:00 20,5 14,8 22,0 13,5 11,4 15 8 26 14 SW 1012,9 15 1 0,0
22.04.2018 15:00:00 20,3 14,4 25,7 13,4 11,4 16 9 24 13 SW 1013,2 19 18 0,0
22.04.2018 14:00:00 21,2 14,4 26,3 13,4 11,4 13 7 23 12 SSW 1012,7 18 19 0,0
22.04.2018 13:00:00 21,3 13,7 30,5 13,3 11,4 12 6 20 11 SW 1012,9 20 37 0,0
22.04.2018 12:00:00 20,5 13,0 30,0 13,3 11,3 13 7 24 13 SW 1012,7 20 60 0,0
22.04.2018 11:00:00 19,6 11,1 22,5 13,4 11,3 14 7 22 12 WSW 1012,6 19 60 0,0
22.04.2018 10:00:00 17,3 10,4 14,4 13,4 11,3 13 7 20 11 S 1012,6 18 57 0,0
22.04.2018 09:00:00 13,7 11,2 8,5 13,5 11,3 2 1 9 5 SSE 1012,8 16 20 0,0
22.04.2018 08:00:00 10,3 9,5 3,2 13,6 11,3 4 2 5 3 E 1013,0 9 30 0,0
22.04.2018 07:00:00 9,2 8,6 2,4 13,7 11,3 2 1 5 3 SSE 1012,7 9 0 0,0
22.04.2018 06:00:00 9,9 9,3 2,4 13,7 11,3 3 2 5 3 SSE 1013,0 6 0 0,0
22.04.2018 05:00:00 10,3 9,8 2,8 13,8 11,3 0 0 4 2 N 1013,4 3,0 0 0,0
22.04.2018 04:00:00 10,9 9,8 3,8 13,9 11,3 3 2 8 4 SSW 1013,8 13 0 0,0
22.04.2018 03:00:00 11,8 10,5 4,4 14,0 11,2 5 3 7 4 SSE 1014,1 16 0 0,0
22.04.2018 02:00:00 12,6 10,5 4,5 14,0 11,2 0 0 2 1 N 1014,3 14 0 0,0
22.04.2018 01:00:00 13,9 11,1 5,3 14,1 11,2 2 1 3 2 SSE 1014,5 22 0 0,0
22.04.2018 00:00:00 15,2 10,6 5,9 14,1 11,2 2 1 5 3 W 1014,7 29 0 0,0
21.04.2018 23:00:00 16,9 11,4 7,5 14,1 11,2 5 3 15 8 SW 1014,9 29 0 0,0
21.04.2018 22:00:00 18,7 12,2 12,0 14,1 11,2 10 5 14 8 SSW 1015,0 37 0 0,0
21.04.2018 21:00:00 20,9 12,8 15,4 14,0 11,2 10 6 23 12 SSW 1014,8 39 41 0,0
21.04.2018 20:00:00 24,0 13,8 20,5 13,9 11,1 10 5 19 11 SSW 1014,5 36 60 0,0
21.04.2018 19:00:00 24,8 12,4 26,0 13,8 11,2 15 8 24 13 SSE 1014,6 60 60 0,0
21.04.2018 18:00:00 25,4 10,8 29,1 13,7 11,2 16 8 24 13 S 1015,3 28 60 0,0
21.04.2018 17:00:00 26,0 15,7 35,5 13,6 11,1 10 6 23 13 SE 1016,0 37 60 0,0
21.04.2018 16:00:00 25,1 16,3 23,9 13,5 11,1 3 2 10 6 W 1016,9 20 16 0,0
21.04.2018 15:00:00 22,6 15,7 24,0 13,5 11,1 5 3 30 16 SSE 1017,3 35 0 0,0
21.04.2018 14:00:00 23,2 15,0 24,8 13,4 11,1 15 8 26 14 SSE 1017,9 33 14 0,0
21.04.2018 13:00:00 24,0 14,7 30,1 13,4 11,1 18 10 27 15 SE 1018,3 19 46 0,0
21.04.2018 12:00:00 23,6 14,9 29,4 13,4 11,1 15 8 24 13 ESE 1018,8 22 56 0,0
21.04.2018 11:00:00 21,9 15,0 22,3 13,4 11,1 15 8 23 12 ESE 1019,1 20 31 0,0
21.04.2018 10:00:00 18,6 13,2 17,3 13,4 11,1 8 4 20 11 ESE 1019,5 18 29 0,0
21.04.2018 09:00:00 17,1 12,8 11,2 13,5 11,1 10 5 16 8 SE 1019,6 19 54 0,0
21.04.2018 08:00:00 13,3 13,0 8,0 13,5 11,0 0 0 4 2 N 1019,5 7 30 0,0
21.04.2018 07:00:00 13,0 12,5 8,9 13,6 11,0 0 0 4 2 N 1019,3 5 0 0,0
21.04.2018 06:00:00 13,0 12,5 8,0 13,6 11,0 0 0 4 2 N 1019,5 4,9 0 0,0
21.04.2018 05:00:00 13,2 12,6 8,4 13,6 11,0 3 2 4 2 W 1019,8 3,9 0 0,0
21.04.2018 04:00:00 13,3 12,4 8,8 13,7 11,0 4 2 5 3 NW 1020,2 6 0 0,0
21.04.2018 03:00:00 13,5 12,6 7,6 13,7 11,0 3 2 6 4 NNW 1020,6 6 0 0,0
21.04.2018 02:00:00 14,1 13,0 7,7 13,8 11,0 3 2 5 3 NW 1021,0 10 0 0,0
21.04.2018 01:00:00 14,6 12,8 8,0 13,7 11,0 4 2 6 3 W 1021,1 15 0 0,0
21.04.2018 00:00:00 17,4 12,9 9,8 13,7 11,0 5 3 11 6 N 1021,1 21 0 0,0
20.04.2018 23:00:00 18,4 12,6 13,0 13,7 10,9 8 4 17 9 N 1021,4 25 0 0,0
20.04.2018 22:00:00 19,8 13,5 16,1 13,6 10,9 11 6 20 11 N 1021,4 27 0 0,0
20.04.2018 21:00:00 21,6 15,2 17,6 13,5 10,9 14 8 22 12 N 1021,0 27 40 0,0
20.04.2018 20:00:00 25,1 12,7 21,6 13,4 10,9 6 3 14 8 ESE 1020,8 47 60 0,0
20.04.2018 19:00:00 26,2 13,0 28,2 13,3 10,9 9 5 19 11 E 1020,9 20 60 0,0
20.04.2018 18:00:00 26,7 12,0 32,6 13,2 10,9 13 7 22 12 SSE 1021,2 44 60 0,0
20.04.2018 17:00:00 27,3 12,1 37,8 13,0 10,9 10 5 21 11 ESE 1021,5 47 60 0,0
20.04.2018 16:00:00 27,4 12,2 39,0 12,9 10,9 8 4 21 12 SE 1022,0 43 60 0,0

tt = Température de l'air
td = dewpoint
tt 5cm = Température de l'air 5cm
tt -20cm = Température de l'air -20cm
tt -100cm = Température de l'air -100cm
ff = Vitesse du vent
fx = gusts
dd = Direction du vent
ppp = reduced air pressure
vv = visibility
sd = Ensoleillement
rr = Quantités de précipitations

stations d'obs. à proximité